Edinburgh Airport, United Kingdom

6:07 AM GMT on March 23, 2017 (GMT +0000)
Edinburgh Airport

Weather History for EGPH - August, 2013

Change the Weather History Date:

Monday, August 26, 2013

  Actual Average Record
Temperature  
Mean Temperature 60 °F -  
Max Temperature 69 °F 62 °F 69 °F (1997)
Min Temperature 50 °F 47 °F 42 °F (2014)
Degree Days  
Heating Degree Days 6    
Growing Degree Days 10 (Base 50)    
Moisture  
Dew Point 56 °F    
Average Humidity 87    
Maximum Humidity 100    
Minimum Humidity 68    
Precipitation  
Precipitation 0.00 in 0.09 in - ()
Sea Level Pressure  
Sea Level Pressure 30.14 in    
Wind  
Wind Speed 2 mph ()    
Max Wind Speed 8 mph    
Max Gust Speed -    
Visibility 4.4 miles    
Events Fog    
Averages and records for this station are not official NWS values.
T = Trace of Precipitation, MM = Missing Value Source: Averaged Metar Reports

Daily Weather History Graph

Daily Weather History Graph

Search for Another Location

Airport or City:

Trip Planner

Search our weather history database for the weather conditions in past years. The results will help you decide how hot, cold, wet, or windy it might be!

Date:

Astronomy

Aug. 26, 2013 Rise Set
Actual Time 6:06 AM BST 8:22 PM BST
Civil Twilight 5:25 AM BST 9:03 PM BST
Nautical Twilight 4:33 AM BST 9:54 PM BST
Astronomical Twilight 3:29 AM BST 10:57 PM BST
Moon 10:08 PM BST (8/26) 1:06 PM BST (8/26)
Length of Visible Light 15h 37m
Length of Day
14h 16m
Waning Gibbous, 69% of the Moon is Illuminated
Aug 26
Waning Gibbous
Aug 28
Last Quarter
Sep 5
New
Sep 12
First Quarter
Sep 19
Full

Hourly Weather History & Observations

Time (BST) Temp. Dew Point Humidity Pressure Visibility Wind Dir Wind Speed Gust Speed Precip Events Conditions
12:20 AM 53.6 °F 53.6 °F 100% 30.15 in 0.1 mi Calm Calm - N/A Fog Fog
12:50 AM 53.6 °F 53.6 °F 100% 30.15 in 0.1 mi Calm Calm - N/A Fog Fog
1:20 AM 53.6 °F 53.6 °F 100% 30.15 in 0.1 mi NE 2.3 mph - N/A Fog Fog
1:50 AM 53.6 °F 53.6 °F 100% 30.18 in 0.1 mi Variable 2.3 mph - N/A Fog Fog
2:20 AM 53.6 °F 53.6 °F 100% 30.18 in 0.1 mi Calm Calm - N/A Fog Fog
2:50 AM 53.6 °F 53.6 °F 100% 30.18 in 0.1 mi Calm Calm - N/A Fog Fog
3:20 AM 53.6 °F 53.6 °F 100% 30.18 in 0.1 mi Calm Calm - N/A Fog Fog
3:50 AM 53.6 °F 53.6 °F 100% 30.18 in 0.1 mi Calm Calm - N/A Fog Fog
4:20 AM 53.6 °F 53.6 °F 100% 30.15 in 0.1 mi Variable 2.3 mph - N/A Fog Fog
4:50 AM 53.6 °F 53.6 °F 100% 30.15 in 0.1 mi Calm Calm - N/A Fog Fog
5:20 AM 53.6 °F 53.6 °F 100% 30.15 in 0.1 mi Calm Calm - N/A Fog Fog
5:50 AM 51.8 °F 51.8 °F 100% 30.18 in 0.1 mi WSW 2.3 mph - N/A Fog Fog
6:20 AM 51.8 °F 51.8 °F 100% 30.18 in 0.4 mi Calm Calm - N/A Fog Fog
6:50 AM 50.0 °F 50.0 °F 100% 30.18 in 0.1 mi Calm Calm - N/A Fog Fog
7:20 AM 51.8 °F 51.8 °F 100% 30.18 in 6.2 mi Calm Calm - N/A Fog Patches of Fog
7:50 AM 51.8 °F 51.8 °F 100% 30.18 in 6.2 mi West 2.3 mph - N/A Fog Unknown
8:20 AM 53.6 °F 53.6 °F 100% 30.18 in - Variable 2.3 mph - N/A   Clear
8:50 AM 55.4 °F 55.4 °F 100% 30.18 in 6.2 mi WSW 2.3 mph - N/A   Partly Cloudy
9:20 AM 59.0 °F 57.2 °F 94% 30.18 in 6.2 mi Variable 2.3 mph - N/A   Partly Cloudy
9:50 AM 60.8 °F 57.2 °F 88% 30.18 in 6.2 mi Variable 2.3 mph - N/A   Partly Cloudy
10:20 AM 62.6 °F 57.2 °F 82% 30.18 in 6.2 mi Variable 2.3 mph - N/A   Partly Cloudy
10:50 AM 64.4 °F 57.2 °F 77% 30.15 in 6.2 mi North 4.6 mph - N/A   Partly Cloudy
11:20 AM 62.6 °F 57.2 °F 82% 30.15 in 6.2 mi North 6.9 mph - N/A   Partly Cloudy
11:50 AM 62.6 °F 59.0 °F 88% 30.15 in 6.2 mi North 5.8 mph - N/A   Partly Cloudy
12:20 PM 64.4 °F 59.0 °F 83% 30.15 in 6.2 mi Variable 3.5 mph - N/A   Scattered Clouds
12:50 PM 68.0 °F 59.0 °F 73% 30.15 in 6.2 mi Variable 3.5 mph - N/A   Scattered Clouds
1:20 PM 68.0 °F 59.0 °F 73% 30.15 in 6.2 mi NW 4.6 mph - N/A   Scattered Clouds
1:50 PM 68.0 °F 59.0 °F 73% 30.15 in 6.2 mi Variable 3.5 mph - N/A   Scattered Clouds
2:20 PM 68.0 °F 59.0 °F 73% 30.12 in 6.2 mi Variable 3.5 mph - N/A   Mostly Cloudy
2:50 PM 69.8 °F 59.0 °F 68% 30.12 in 6.2 mi Variable 3.5 mph - N/A   Scattered Clouds
3:20 PM 69.8 °F 60.8 °F 73% 30.12 in 6.2 mi North 4.6 mph - N/A   Scattered Clouds
3:50 PM 68.0 °F 59.0 °F 73% 30.12 in 6.2 mi NNW 5.8 mph - N/A   Scattered Clouds
4:20 PM 69.8 °F 59.0 °F 68% 30.12 in 6.2 mi NNW 6.9 mph - N/A   Mostly Cloudy
4:50 PM 69.8 °F 59.0 °F 68% 30.09 in 6.2 mi Variable 3.5 mph - N/A   Mostly Cloudy
5:20 PM 68.0 °F 59.0 °F 73% 30.09 in 6.2 mi North 4.6 mph - N/A   Scattered Clouds
5:50 PM 68.0 °F 59.0 °F 73% 30.09 in 6.2 mi North 5.8 mph - N/A   Scattered Clouds
6:20 PM 66.2 °F 59.0 °F 78% 30.09 in 6.2 mi NE 4.6 mph - N/A   Scattered Clouds
6:50 PM 66.2 °F 59.0 °F 78% 30.09 in 6.2 mi NE 3.5 mph - N/A   Mostly Cloudy
7:20 PM 64.4 °F 59.0 °F 83% 30.09 in 6.2 mi NE 4.6 mph - N/A   Mostly Cloudy
7:50 PM 64.4 °F 59.0 °F 83% 30.09 in 6.2 mi WNW 6.9 mph - N/A   Mostly Cloudy
8:20 PM 62.6 °F 57.2 °F 82% 30.12 in 6.2 mi West 5.8 mph - N/A   Mostly Cloudy
8:50 PM 62.6 °F 55.4 °F 77% 30.12 in 6.2 mi West 5.8 mph - N/A   Mostly Cloudy
9:20 PM 60.8 °F 55.4 °F 82% 30.12 in 6.2 mi West 4.6 mph - N/A   Mostly Cloudy
9:50 PM 60.8 °F 55.4 °F 82% 30.12 in 6.2 mi West 3.5 mph - N/A   Mostly Cloudy
10:20 PM 59.0 °F 55.4 °F 88% 30.12 in 6.2 mi WSW 4.6 mph - N/A   Overcast
10:50 PM 59.0 °F 53.6 °F 82% 30.12 in 6.2 mi WSW 8.1 mph - N/A   Scattered Clouds
11:20 PM 55.4 °F 51.8 °F 88% 30.12 in 6.2 mi WSW 5.8 mph - N/A   Partly Cloudy
11:50 PM 55.4 °F 51.8 °F 88% 30.12 in 6.2 mi WSW 5.8 mph - N/A   Scattered Clouds